Wind_Speed
25 26 27 28 28 26 26 25 24 23 21 19 18 18 18 19 19 18 17 16 16 16 16 16 17 16 15 14 14 14 14 14 14 13 13 13 12 10 10 11 11 11 11 12 12 13 13 12 12 11 11 12 12 12 11 11 10 10 9 8 8 8 8 9 10 9 8 9 9 9 9 10 11 11 12 13 13 13 13 13 12 12 11 10 10
24 26 27 28 28 28 28 27 26 24 23 21 20 19 19 20 20 18 18 18 17 16 15 16 17 18 18 17 16 16 15 15 15 15 13 13 12 11 10 11 12 12 12 12 13 13 13 13 12 11 12 12 13 12 11 11 10 9 9 9 8 8 9 10 10 10 10 10 10 10 11 12 12 13 14 14 14 15 16 16 14 13 13 12 11
23 24 25 26 28 29 29 29 27 26 25 24 22 21 20 20 19 19 19 19 18 18 17 16 17 19 19 19 19 17 16 15 15 15 14 13 12 11 11 11 12 12 12 12 13 13 13 13 13 13 14 14 13 12 11 11 10 10 10 10 10 10 11 11 11 11 11 11 11 11 12 13 14 14 15 16 16 15 16 15 15 14 14 13 13
20 22 23 25 28 30 30 31 30 28 28 26 24 22 21 20 19 19 20 20 20 20 19 18 18 18 19 19 19 19 17 15 14 14 15 15 14 13 12 12 12 13 13 13 13 14 14 14 14 14 15 15 14 12 12 12 11 11 11 11 11 11 11 11 11 11 11 12 12 12 13 14 15 15 16 17 17 16 15 15 15 15 15 15 16
19 21 24 26 28 31 32 33 32 31 29 26 24 22 21 21 20 20 20 20 20 19 19 18 18 17 17 18 19 20 18 16 15 15 16 16 15 14 13 13 14 14 14 14 13 14 15 15 15 15 15 15 14 13 13 13 12 12 12 12 12 12 12 12 12 12 12 13 13 14 15 16 16 16 16 16 16 16 16 16 17 17 16 17 17
19 21 23 24 23 25 30 33 33 31 29 26 24 23 23 22 20 21 21 21 20 19 18 17 17 17 17 17 19 20 19 17 17 17 17 16 16 15 14 14 14 14 14 14 14 15 16 16 16 16 15 15 15 14 14 14 13 13 12 13 13 13 12 13 13 13 14 14 14 14 16 17 18 17 16 15 15 16 17 17 19 19 18 18 18
18 20 22 23 21 20 24 29 31 30 27 25 24 24 24 22 21 21 23 22 20 19 17 17 18 17 16 16 18 20 20 19 18 17 17 17 16 15 14 14 15 15 14 13 14 16 17 17 17 17 16 16 16 16 15 15 14 13 13 13 13 13 13 13 13 14 14 15 15 15 16 18 19 19 17 15 15 18 19 19 20 21 21 20 20
17 19 21 22 22 19 19 22 25 26 25 24 24 23 23 21 20 21 22 21 18 17 17 19 19 18 17 17 18 20 22 21 19 17 16 16 16 14 14 14 15 15 14 14 15 16 17 18 17 17 17 17 17 16 16 15 14 13 13 13 13 14 14 14 14 15 15 16 16 16 17 18 20 20 18 17 19 21 20 19 20 22 23 23 22
17 18 19 20 20 19 18 19 21 23 23 23 22 20 18 18 19 20 20 18 16 16 17 18 18 17 17 17 18 20 22 21 19 18 17 16 15 14 14 14 15 15 15 15 16 17 17 17 17 18 18 18 17 17 15 14 14 14 15 15 16 16 16 15 15 15 16 16 16 16 16 17 19 19 19 20 23 23 21 20 21 22 24 24 23
17 17 17 18 19 20 20 21 21 22 21 19 17 15 15 16 18 18 17 15 14 15 15 15 16 16 17 17 17 19 21 21 20 19 18 16 15 13 14 14 15 15 15 15 16 17 17 16 16 18 18 18 17 16 15 14 16 16 17 17 18 17 16 16 15 15 15 15 15 15 16 17 18 18 18 19 21 22 22 22 22 22 24 24 24
16 16 16 17 18 19 20 21 21 20 19 16 12 11 13 16 17 15 14 13 13 13 13 13 14 15 15 15 15 17 19 20 20 19 17 15 13 12 13 14 14 15 15 15 16 16 16 15 16 17 17 17 17 16 14 14 15 16 16 16 16 16 16 16 15 15 15 15 16 16 17 18 18 19 19 19 19 21 22 22 23 23 23 24 25
13 15 15 16 16 17 18 19 18 18 17 16 14 13 13 13 12 11 11 12 12 13 12 12 13 13 13 13 14 15 15 16 17 16 14 13 12 12 13 14 14 14 14 15 15 15 15 16 16 16 16 16 16 15 14 13 14 14 14 14 15 15 16 16 16 16 15 16 17 18 18 18 19 21 22 21 21 21 22 22 23 22 22 23 24
12 13 14 15 15 15 15 15 16 16 17 17 16 14 12 10 8 9 10 11 12 12 12 12 12 12 12 12 13 14 14 14 15 13 12 12 12 13 13 14 14 14 14 14 14 14 14 15 14 14 13 13 13 13 13 13 14 15 14 14 15 15 16 17 17 17 16 17 18 19 19 19 21 23 23 22 22 22 22 22 23 23 23 22 23
11 12 13 14 14 14 15 14 14 15 16 15 13 11 10 9 9 9 10 10 10 11 11 11 12 12 13 13 13 13 14 15 14 13 12 12 12 13 13 13 14 13 12 12 11 11 11 11 11 12 12 12 13 13 14 15 16 16 16 15 15 16 16 17 18 17 17 17 19 20 21 22 23 25 25 24 23 23 23 23 23 24 23 23 24
11 12 12 13 14 13 13 13 12 12 12 12 11 10 9 8 8 9 9 9 9 10 10 10 10 12 13 13 13 12 13 13 13 12 12 12 12 12 11 12 12 11 11 11 10 10 11 11 11 12 13 13 14 15 15 16 16 17 17 16 16 16 17 18 19 19 19 20 21 22 24 25 26 27 27 25 25 25 26 26 26 26 25 25 26
11 11 11 11 11 10 10 10 9 8 8 9 9 8 8 8 8 7 8 8 8 9 9 10 10 11 11 11 11 11 11 11 11 12 12 11 11 11 11 11 11 11 11 11 11 12 12 13 13 14 14 15 16 16 16 16 17 17 17 17 17 17 18 19 20 21 22 23 23 24 25 27 28 29 28 27 27 28 28 29 29 29 28 27 28
9 8 8 7 7 6 6 6 7 6 6 7 7 8 8 9 9 9 9 9 9 9 9 10 10 10 10 11 10 10 10 11 12 12 12 12 12 12 12 12 12 12 12 13 13 14 14 15 15 15 16 16 16 16 16 16 17 17 17 17 17 18 19 19 20 21 23 24 25 25 26 27 29 29 28 28 29 29 30 30 30 30 29 29 30
7 6 5 4 3 3 3 3 4 5 5 6 6 7 7 9 10 10 10 11 10 10 10 10 9 10 10 10 10 10 10 10 11 11 12 12 12 13 13 13 13 13 13 14 15 16 16 16 16 16 16 16 16 16 16 17 17 17 17 17 18 18 19 20 21 22 23 24 25 25 25 27 28 29 28 28 29 30 30 30 30 30 29 30 30
7 6 5 4 3 2 3 3 4 5 6 6 6 6 6 7 8 9 10 11 11 10 10 10 9 9 9 9 9 10 10 10 11 11 12 12 12 13 13 14 14 14 14 15 16 17 16 16 16 16 16 17 17 17 16 16 17 17 17 18 19 19 20 20 21 22 23 24 24 24 24 26 27 28 28 29 29 30 30 30 29 29 28 29 29
8 7 6 5 4 4 4 5 5 5 6 6 6 6 6 7 7 7 8 9 9 10 10 10 10 10 9 9 9 9 10 11 12 12 12 13 13 13 14 14 14 14 14 15 16 17 16 16 17 17 17 17 17 17 17 17 17 17 18 19 19 20 20 21 21 22 23 23 23 23 24 25 26 26 27 28 29 29 29 29 29 29 28 28 28
9 8 7 6 5 5 5 5 5 6 6 6 6 7 7 7 7 7 8 9 9 10 10 11 11 11 11 10 10 10 11 12 13 13 13 13 14 14 15 15 15 15 15 16 17 17 17 18 18 18 18 18 18 19 19 18 18 18 18 19 20 20 21 21 22 22 22 22 23 23 24 24 24 25 26 28 28 29 29 29 29 28 28 28 27
11 10 9 8 7 6 5 4 5 5 6 7 7 7 7 7 7 7 8 8 9 9 10 11 11 12 11 11 11 12 13 13 13 14 15 15 16 16 17 17 17 17 17 17 17 18 18 18 18 18 19 19 19 19 19 19 19 18 19 19 20 20 21 21 21 21 21 22 23 24 25 25 25 25 26 27 28 28 28 27 27 26 26 26 25
13 12 11 10 9 7 6 5 5 6 7 7 8 8 8 8 8 9 9 9 10 10 10 11 12 12 12 12 13 14 15 15 15 16 16 17 18 18 18 18 17 17 17 17 17 18 18 18 18 19 19 19 19 19 19 19 19 18 18 19 19 20 21 21 20 20 21 22 23 24 24 25 25 26 26 26 26 26 26 25 25 25 24 24 23
13 13 13 12 10 9 8 8 8 7 8 8 8 9 9 10 10 10 11 11 11 11 12 12 13 14 14 14 15 16 17 17 17 17 17 17 18 18 18 18 17 17 17 17 17 18 18 18 18 19 19 19 19 19 19 19 18 18 18 18 19 20 20 20 19 20 21 22 23 23 24 25 25 26 26 25 25 24 24 23 23 23 23 22 22
13 14 14 15 14 13 11 10 10 9 9 8 8 9 9 10 10 10 10 10 10 11 11 12 13 14 14 15 15 15 16 17 16 16 16 16 17 17 17 17 17 17 17 17 18 18 18 19 19 19 19 19 19 19 19 18 18 17 17 17 18 19 19 19 19 20 21 22 23 23 24 25 25 25 25 25 24 23 22 22 21 22 21 21 20
14 13 14 15 15 15 14 12 11 10 9 8 8 8 8 9 9 10 10 10 10 10 11 11 12 13 14 14 14 14 14 14 15 15 15 15 16 16 16 16 17 17 17 18 18 19 19 19 19 19 19 19 19 19 19 19 18 18 17 17 17 18 19 19 20 21 21 22 23 23 24 25 25 25 25 25 24 24 23 22 21 21 21 21 19
15 13 13 13 12 12 12 12 11 11 10 9 8 8 8 8 9 10 11 12 12 12 13 13 13 13 14 14 14 14 14 15 15 15 15 16 16 17 17 17 18 18 18 19 19 20 20 20 20 20 20 20 21 21 20 20 19 18 17 17 17 18 19 19 20 21 21 22 23 24 24 25 25 25 25 25 25 25 24 23 23 22 22 21 20
17 15 13 12 10 10 10 10 10 10 10 9 8 8 8 9 10 11 11 12 13 13 14 15 15 15 15 15 15 16 16 16 17 17 17 18 18 19 19 19 19 20 20 20 21 21 22 22 22 22 22 22 22 22 22 22 22 20 19 17 17 18 19 19 20 21 22 22 23 24 25 25 25 25 25 25 25 26 25 25 24 24 23 22 21
20 17 16 13 11 10 10 9 10 10 10 9 9 9 10 11 12 13 13 13 13 13 14 15 16 16 17 17 17 17 17 17 17 18 18 18 19 19 19 20 20 20 21 21 22 22 23 23 23 23 23 23 23 23 24 24 24 22 20 19 18 19 19 20 20 21 22 22 23 24 25 25 26 26 26 26 26 27 27 26 26 25 24 23 22
19 18 18 18 16 13 12 11 11 12 12 11 11 11 11 12 13 14 15 16 16 15 15 15 16 16 17 17 17 17 17 17 17 16 16 16 16 17 18 18 19 19 20 20 21 22 22 23 23 23 23 23 23 24 24 24 24 23 22 20 20 20 21 21 21 22 22 23 24 24 25 26 27 27 27 27 27 27 27 27 26 26 25 24 23
17 16 17 18 18 17 16 15 15 15 15 14 13 13 13 14 15 16 17 18 18 18 18 17 16 16 16 15 16 16 16 16 16 16 16 16 16 17 18 18 19 20 20 21 21 22 22 23 23 23 22 22 22 23 24 24 24 24 23 22 22 22 22 22 22 23 23 24 25 25 26 26 27 28 29 29 28 28 27 27 27 26 25 25 23
18 16 16 17 17 17 17 17 18 18 19 19 17 16 16 16 17 18 18 19 19 19 19 19 18 17 16 16 15 16 16 16 17 17 17 18 18 19 19 20 21 21 22 22 22 22 22 22 22 22 22 22 22 23 24 25 24 24 24 24 24 24 24 24 24 24 24 25 26 26 26 27 27 28 29 29 29 28 28 28 27 27 26 25 24
19 18 18 18 18 17 17 16 17 19 21 22 21 20 20 20 21 20 20 20 20 20 20 19 19 19 19 18 18 18 19 19 19 19 19 20 20 21 21 22 22 23 23 23 22 22 21 21 22 22 22 22 23 24 25 26 26 25 25 25 25 25 25 26 26 26 26 27 27 28 28 28 28 29 29 29 29 29 29 28 28 28 27 26 25
18 18 20 20 20 20 19 18 18 19 20 21 21 20 21 22 23 23 23 22 22 21 21 21 20 20 20 21 22 22 21 21 21 21 21 21 22 22 22 23 23 23 23 23 23 23 23 23 23 23 23 23 23 24 25 26 27 27 26 25 26 26 26 27 27 28 28 28 29 29 29 29 29 30 30 30 30 29 29 29 28 28 28 27 26
25 24 24 23 22 22 22 22 21 21 22 23 23 23 22 21 22 24 25 25 25 24 24 23 23 23 23 23 23 23 23 23 22 22 22 22 22 23 23 23 23 22 22 23 23 24 24 25 25 25 24 24 23 23 24 25 26 27 26 25 25 25 26 27 28 29 29 30 30 30 30 30 30 30 30 30 29 29 29 29 28 28 28 27 26
31 31 30 29 27 26 26 26 25 25 25 25 25 26 25 24 23 24 25 26 27 28 28 27 27 27 26 26 26 25 25 25 24 23 23 23 24 24 24 23 23 22 23 23 24 24 24 25 25 25 25 25 25 24 24 23 24 25 25 25 25 25 26 27 28 29 30 31 31 31 31 30 30 30 30 30 29 29 29 28 28 28 28 28 26
37 36 35 34 32 31 31 30 30 29 29 28 28 28 27 26 26 26 26 26 27 28 29 31 32 32 31 30 29 29 28 28 27 26 25 25 25 25 25 24 23 23 23 24 25 26 26 25 25 25 25 26 27 27 27 27 26 27 28 29 29 28 28 28 29 30 30 31 32 32 31 31 31 30 30 30 30 29 29 29 28 28 28 28 27
41 39 38 37 36 35 35 35 34 33 32 31 31 31 30 29 28 28 29 29 30 30 30 31 33 35 35 34 32 31 31 30 29 28 27 27 27 26 26 25 25 25 25 25 26 26 27 27 26 25 25 25 27 28 29 30 30 30 31 31 31 30 30 29 30 30 31 31 32 32 32 32 32 31 31 31 31 31 30 30 29 29 28 28 28
43 42 41 40 39 39 38 38 38 37 35 34 33 33 32 31 31 30 30 31 32 33 33 33 34 35 36 36 35 34 33 32 31 30 29 28 28 28 28 27 27 27 27 27 27 27 27 27 27 27 25 25 26 27 28 30 31 31 31 31 30 30 30 29 30 30 31 31 32 32 32 33 32 32 32 32 32 32 32 31 30 29 29 29 29
43 43 42 42 40 40 40 40 40 40 39 37 36 35 34 33 33 32 32 33 34 34 35 34 33 33 33 33 33 33 34 34 34 32 31 30 30 30 30 29 29 29 29 29 30 29 28 28 28 27 27 26 26 26 27 28 30 31 31 30 30 30 29 29 29 30 30 31 32 32 33 33 33 33 33 33 33 33 32 32 31 30 29 29 30
40 41 41 41 40 39 39 40 41 41 41 40 39 37 36 36 34 34 35 36 36 35 35 35 35 33 31 30 31 32 34 35 36 35 34 33 32 32 32 31 31 30 30 30 31 31 30 29 29 28 28 27 26 26 26 27 29 30 31 31 31 31 30 30 29 29 30 31 31 32 33 33 33 33 33 33 33 33 32 31 30 30 30 30 30
38 39 40 39 39 38 38 38 39 40 41 41 41 39 39 38 37 37 39 40 39 36 35 36 37 37 35 34 35 37 37 36 37 37 37 36 35 34 34 33 33 33 32 31 32 32 32 31 30 30 29 28 27 27 28 28 28 29 31 32 32 32 32 31 31 30 31 31 31 32 32 33 33 33 33 33 33 32 32 30 29 29 30 30 30
37 38 38 38 38 37 37 38 38 39 41 41 41 41 40 39 39 41 42 41 39 38 36 36 37 40 41 42 43 43 41 40 39 39 39 39 39 37 37 36 35 35 34 33 33 33 33 32 32 31 31 30 30 30 30 30 30 30 31 31 32 33 33 32 32 32 32 32 32 33 33 33 34 34 34 34 33 32 31 31 30 29 30 30 30
37 38 38 38 37 37 37 38 39 39 41 42 42 42 42 42 42 43 42 40 40 40 39 38 39 41 45 47 47 46 45 44 42 42 42 42 41 40 40 39 38 38 37 36 35 34 34 34 33 32 32 32 32 32 32 33 32 32 32 32 32 33 33 33 33 33 33 33 33 34 34 34 34 34 34 35 34 33 32 31 31 30 31 31 31
37 38 38 38 37 37 38 38 39 40 41 42 43 44 44 43 43 43 43 42 42 42 41 40 39 40 43 45 46 45 45 45 45 45 45 45 44 43 42 42 41 40 39 38 37 36 35 35 34 34 33 33 33 34 35 35 35 35 34 34 34 34 34 35 35 34 34 35 35 35 35 36 35 35 35 34 34 34 33 33 32 32 32 32 32
37 38 39 39 38 38 38 39 41 41 42 43 44 45 45 45 44 44 44 44 44 44 43 41 39 38 39 40 41 43 45 45 46 47 47 46 45 45 44 44 43 41 40 39 38 37 36 36 36 35 35 34 34 35 36 36 36 36 36 36 36 36 36 36 36 35 35 35 36 36 37 37 37 37 36 35 34 34 34 34 34 34 34 33 33
36 38 39 39 39 40 40 41 42 43 44 44 45 46 46 46 46 46 46 46 46 46 46 45 44 42 42 41 42 44 46 46 47 47 47 46 45 46 45 43 41 40 40 40 40 39 37 37 37 37 37 36 36 35 35 35 36 37 38 39 39 39 39 38 38 37 36 35 36 36 37 38 38 38 37 37 37 36 36 36 36 36 36 36 36
34 36 38 39 40 41 41 42 43 44 44 44 45 46 47 48 47 47 47 48 48 48 49 49 50 49 48 46 45 45 46 46 46 47 46 45 44 44 42 40 38 38 39 40 40 38 37 37 38 37 37 36 34 33 32 33 34 37 39 40 40 41 41 41 40 39 37 36 36 37 38 38 39 39 39 38 38 38 38 38 37 37 38 38 38
33 35 37 39 40 41 41 42 43 43 43 44 45 46 47 48 49 48 48 49 50 50 51 51 52 53 52 50 46 44 44 44 44 45 45 44 42 41 39 38 38 39 39 39 38 37 38 38 38 36 35 33 32 31 31 32 34 37 39 41 42 42 42 41 40 38 37 36 37 38 38 38 38 39 40 39 39 39 39 39 39 39 39 40 40
32 33 35 37 38 39 40 40 41 41 41 42 43 44 45 46 47 48 48 48 49 50 50 51 52 52 50 47 44 42 42 42 42 43 43 42 41 40 40 39 39 40 39 38 37 37 38 38 36 34 33 33 32 32 32 34 36 38 39 41 42 42 41 39 37 36 36 37 37 37 37 37 38 39 40 40 40 40 40 40 40 40 40 40 40
32 32 33 35 36 37 37 38 39 39 39 40 42 43 44 45 46 46 47 47 48 47 47 48 49 48 46 44 42 40 40 40 40 40 40 41 42 42 42 41 40 40 39 38 37 37 38 38 36 34 33 33 33 34 35 37 37 38 40 41 41 39 38 36 35 37 38 40 39 38 38 38 39 40 40 41 41 41 41 41 41 41 41 40 40
Wind_Direction
237 238 236 234 233 232 233 235 238 241 242 243 247 250 247 244 244 247 250 254 254 249 245 244 248 252 253 255 257 256 255 253 249 246 245 244 238 229 229 233 235 235 233 233 233 234 233 230 228 225 222 220 218 218 222 223 222 218 214 217 219 221 228 235 240 240 236 235 240 244 244 247 253 255 253 251 250 248 248 250 252 255 258 260 260
241 242 241 238 237 236 236 236 237 239 241 240 241 243 243 242 243 246 248 250 252 251 249 247 249 251 251 250 247 243 243 244 245 246 247 247 243 234 230 232 233 232 232 233 234 235 234 231 230 230 232 233 229 226 225 226 229 232 232 232 229 228 230 232 236 241 243 241 240 242 245 250 254 257 258 259 257 252 250 252 253 255 260 265 268
241 243 243 238 235 235 236 236 235 237 238 237 236 238 240 242 244 246 248 250 251 251 249 247 246 245 245 244 242 239 238 237 240 246 248 248 245 238 233 233 235 236 236 237 237 236 234 232 232 232 234 236 235 234 234 233 233 235 239 242 239 235 235 235 236 240 246 251 251 250 252 254 255 258 262 266 269 267 263 262 260 261 266 270 272
240 242 241 237 233 232 233 233 233 234 235 234 234 237 239 241 243 246 249 252 252 251 249 245 245 245 243 241 239 239 238 234 235 242 246 246 246 245 240 237 237 238 239 239 239 239 239 238 237 236 238 239 238 238 241 240 239 239 240 245 247 246 246 247 247 246 248 255 259 261 260 260 259 259 262 266 272 276 276 275 271 269 272 272 272
237 238 238 239 240 236 234 234 233 232 233 232 234 238 240 242 244 247 250 252 251 251 248 245 245 247 246 241 237 236 235 230 229 236 241 243 245 245 242 240 238 237 237 238 240 243 244 244 243 243 246 246 243 242 245 246 246 247 248 250 253 256 258 258 256 255 256 259 262 263 264 263 262 262 266 272 277 279 280 277 273 271 271 271 270
235 235 234 240 247 240 233 234 233 230 231 232 234 238 240 241 244 247 249 249 250 250 248 245 246 248 250 247 241 236 234 229 226 230 237 240 240 240 238 238 238 237 237 238 241 244 247 248 248 248 250 250 247 247 251 254 255 255 255 257 260 263 264 263 262 262 264 265 265 266 267 268 268 268 270 272 275 279 280 277 276 276 277 276 275
236 234 231 234 240 237 231 230 227 227 230 233 235 238 239 239 240 242 246 248 250 251 249 245 244 246 249 249 244 237 233 230 227 229 233 236 236 236 237 238 239 239 239 241 243 245 247 250 250 250 251 250 248 249 253 257 260 261 260 261 265 267 267 266 265 265 266 265 266 268 269 271 273 274 274 274 275 275 276 279 283 286 286 284 283
231 230 227 227 228 225 222 219 218 221 228 232 233 235 237 239 238 240 244 247 248 246 243 242 243 246 246 248 244 235 229 229 229 229 231 233 234 235 238 240 241 242 243 244 247 247 248 250 251 253 252 249 247 248 252 257 263 266 267 266 266 267 267 267 267 268 269 269 270 271 273 276 277 277 278 279 276 272 275 283 289 289 288 287 286
224 221 219 219 218 216 214 212 214 218 223 226 228 231 237 239 237 238 240 242 242 239 238 240 243 246 246 246 243 232 225 226 228 227 228 231 234 237 241 243 244 245 245 246 248 249 249 250 252 253 253 252 250 251 254 258 261 263 265 267 267 268 268 269 271 272 273 273 274 275 278 280 281 281 280 275 272 272 276 284 286 285 286 287 288
218 216 213 213 214 215 213 213 214 217 220 223 227 233 237 234 230 231 232 233 235 235 235 238 241 244 245 245 240 230 223 223 225 224 225 228 232 238 243 245 244 242 242 244 246 248 250 252 254 255 257 257 257 257 257 258 260 260 261 263 266 269 274 276 277 277 277 277 278 279 281 281 284 287 282 276 275 277 280 283 283 283 286 288 290
208 207 207 209 212 213 213 213 214 216 219 219 219 222 222 221 223 226 226 226 227 228 228 231 235 237 235 234 230 222 218 219 221 222 222 225 230 237 243 244 242 241 242 245 247 248 250 252 254 256 259 262 262 262 260 260 262 264 265 265 267 270 275 277 278 279 280 282 283 283 285 288 290 290 286 283 283 284 286 288 288 288 289 289 291
194 197 199 202 207 208 208 209 208 210 211 208 206 209 210 210 215 218 215 215 215 214 217 222 226 223 216 212 211 211 212 214 215 217 219 222 228 235 240 243 243 243 245 247 248 250 251 252 254 256 260 264 266 268 267 265 266 267 268 271 274 275 275 276 279 281 282 284 286 289 291 294 294 291 289 291 292 292 293 294 294 294 293 291 293
176 180 184 187 192 194 193 195 197 199 202 201 203 207 204 195 190 191 195 200 200 199 203 208 210 207 200 197 198 200 201 202 205 210 217 225 231 233 235 239 242 244 246 246 247 248 251 253 255 255 257 259 263 267 270 271 271 271 272 276 280 282 284 286 288 288 289 291 293 294 295 295 294 293 292 293 295 297 295 293 294 295 294 294 294
165 171 175 176 177 178 178 181 187 191 195 195 193 191 188 181 175 173 175 181 185 187 191 196 199 197 194 189 189 192 195 197 200 206 218 228 232 232 232 234 237 239 241 241 241 241 243 247 250 252 254 257 260 264 266 269 272 277 280 284 286 289 291 293 293 293 296 298 298 298 299 299 298 298 298 297 300 301 298 296 296 295 295 297 295
161 165 169 170 169 168 168 171 177 183 186 184 180 176 173 173 171 167 164 168 174 177 179 185 190 189 184 181 180 184 189 194 199 206 215 221 223 223 222 223 225 228 232 236 238 238 241 244 248 252 255 259 262 264 267 272 277 282 286 290 293 295 296 297 298 300 303 303 302 302 303 303 301 300 300 301 304 303 300 299 298 298 299 299 295
155 155 155 156 155 152 152 153 155 162 168 166 165 163 159 157 157 157 156 158 164 167 167 171 176 173 168 168 171 174 177 184 193 200 205 210 214 216 217 218 221 225 231 238 243 246 249 250 252 255 258 261 265 270 275 280 284 287 290 293 296 299 300 301 302 304 304 304 303 303 302 302 301 300 301 303 303 300 298 298 298 299 301 301 298
152 147 142 138 137 136 138 142 143 148 154 153 153 152 150 150 151 150 151 153 159 164 165 166 169 168 165 166 170 174 177 183 190 197 202 209 216 222 226 228 230 233 237 242 247 249 251 253 255 259 263 267 271 275 279 282 285 288 291 294 296 298 299 299 299 299 299 299 299 299 299 298 297 297 298 299 297 296 296 296 297 298 300 300 299
159 153 145 136 139 145 154 168 170 176 179 174 170 168 164 161 160 159 161 164 167 172 176 177 178 179 178 178 181 186 192 198 204 209 213 217 222 227 232 235 237 238 241 245 248 249 250 253 257 261 265 269 274 277 279 282 285 289 292 294 296 296 295 295 295 295 294 294 294 295 295 293 291 291 293 293 292 292 293 294 295 297 297 297 296
173 172 171 172 184 193 206 218 218 217 215 205 199 198 192 187 182 178 179 181 182 185 192 197 199 197 195 195 195 199 207 215 220 224 226 228 231 235 238 241 243 245 247 250 253 255 257 259 262 265 268 271 274 276 278 280 283 287 290 293 294 294 293 293 293 292 291 290 290 289 288 287 287 289 291 291 292 292 293 294 294 294 294 293 293
182 184 186 190 206 225 236 245 248 249 249 243 236 231 223 216 210 202 199 198 196 196 202 209 213 213 210 210 209 211 218 224 229 232 234 237 241 243 245 248 251 253 255 256 259 262 265 266 269 271 274 276 277 278 280 281 284 287 290 292 293 293 293 293 292 291 290 289 288 286 284 284 286 289 291 293 293 294 294 294 294 294 293 293 294
183 185 190 193 204 222 239 260 271 275 276 272 265 259 252 242 232 223 217 214 210 207 210 215 220 222 222 224 225 226 228 231 235 238 241 243 246 248 250 252 254 256 258 260 263 265 268 269 271 273 274 276 278 280 283 285 288 290 292 292 292 292 293 293 294 293 291 290 289 288 288 288 289 291 292 293 293 293 294 293 294 294 295 296 298
184 186 188 190 196 206 217 241 262 270 274 273 271 269 266 261 254 246 240 235 232 226 223 225 230 232 232 232 234 237 238 239 242 244 247 250 251 252 253 254 255 257 258 261 263 264 266 267 268 270 271 273 277 280 283 286 288 290 291 292 292 292 293 294 294 292 291 290 290 290 292 293 293 293 292 292 292 293 293 294 295 296 297 298 301
184 184 184 185 188 191 194 207 223 240 250 256 261 263 263 263 260 257 255 253 252 249 244 242 244 246 245 242 242 245 247 249 251 251 252 253 254 255 255 256 257 258 259 260 261 262 263 265 266 269 272 275 278 281 283 285 287 289 290 291 292 294 295 295 294 293 294 293 293 292 292 293 293 292 292 292 292 293 294 295 297 298 300 301 303
179 176 173 173 173 174 178 187 198 214 230 241 249 254 255 257 255 253 253 253 254 254 253 250 250 251 252 250 248 250 252 254 255 256 256 256 257 257 258 258 258 259 260 262 264 264 266 267 269 271 274 276 279 282 283 285 287 290 291 292 294 296 297 296 296 296 297 297 295 293 292 292 293 293 293 293 292 293 294 296 298 300 302 303 304
177 173 169 168 167 168 171 177 186 196 208 221 233 240 245 250 254 255 256 256 256 256 254 253 251 250 250 250 249 250 252 254 255 256 256 256 257 257 258 259 260 262 263 265 267 268 269 270 272 274 276 279 282 283 285 287 290 292 294 295 297 300 300 299 299 299 299 298 296 295 294 294 294 293 292 292 292 292 293 296 298 300 302 303 305
184 183 178 175 173 173 174 178 182 187 194 204 217 229 240 249 254 258 260 261 262 261 259 257 255 253 254 254 254 253 253 253 255 256 256 256 257 257 258 260 261 263 265 267 268 270 272 274 275 277 278 280 282 284 285 288 290 293 295 297 301 304 304 303 302 301 300 299 298 297 296 295 293 292 291 291 291 292 293 296 298 300 301 303 305
191 194 193 190 186 183 183 185 186 187 192 201 211 223 237 248 255 258 262 264 264 265 264 263 263 262 261 259 259 258 258 257 257 258 259 260 260 261 262 263 265 267 269 271 273 274 276 278 279 280 280 280 281 283 285 287 288 291 294 298 302 305 305 304 302 302 301 300 298 297 295 294 292 290 290 290 291 293 294 296 298 299 300 301 304
192 199 203 204 202 199 198 198 199 200 200 206 217 229 240 250 257 259 263 267 270 270 269 268 266 267 267 267 266 264 263 263 263 263 263 264 265 266 268 269 271 272 274 275 277 278 280 282 282 283 283 282 282 283 285 286 288 289 292 295 299 300 300 300 300 301 300 299 296 294 292 291 291 290 291 292 292 293 294 295 297 299 299 300 302
189 197 204 205 207 210 212 213 217 221 221 222 230 239 245 254 261 265 268 271 273 274 273 271 269 268 269 270 271 271 270 269 268 268 268 269 270 271 272 274 275 276 277 278 279 280 281 282 283 283 283 282 282 282 283 285 287 289 290 292 292 293 293 294 295 296 297 296 294 292 291 290 290 291 292 293 294 294 295 296 298 299 299 300 301
192 197 202 204 205 208 212 217 225 232 235 237 240 244 248 254 260 266 270 272 273 273 272 271 271 270 269 269 269 269 268 267 267 267 268 269 270 272 273 274 275 276 277 278 278 278 279 278 279 279 279 279 279 279 280 281 284 286 286 286 285 286 288 290 292 293 294 294 294 292 290 289 289 290 291 293 295 296 297 298 299 299 299 300 302
198 203 206 209 210 211 214 219 225 232 238 242 244 248 253 258 262 267 271 275 277 278 275 271 269 268 267 266 265 264 264 263 263 263 265 267 269 271 272 274 275 276 276 275 275 275 275 275 275 275 275 276 276 276 276 276 277 280 281 282 281 281 283 285 287 289 291 292 292 291 290 289 289 290 291 293 294 296 297 298 298 299 299 300 302
202 209 215 215 215 217 221 225 228 232 236 240 243 246 250 256 262 266 270 274 279 282 281 276 270 267 265 263 259 258 258 258 260 262 265 268 271 273 275 278 280 281 280 279 277 278 278 279 279 277 276 275 274 274 274 274 274 275 277 279 279 279 280 281 283 285 287 288 288 289 290 290 290 291 291 292 293 295 296 297 298 298 298 299 300
203 214 221 223 224 224 227 231 234 236 237 239 241 243 244 246 249 254 261 267 272 277 280 277 271 265 264 263 260 258 258 259 262 266 269 272 274 276 278 279 281 282 282 280 278 279 281 283 284 282 279 276 274 273 274 274 274 274 275 276 277 278 279 279 280 282 283 284 285 286 287 288 290 291 291 292 293 294 296 297 297 298 297 297 298
223 228 226 228 233 233 234 237 240 243 244 244 245 247 247 246 244 245 249 255 261 268 273 275 272 266 261 260 261 261 262 264 266 269 272 274 276 278 279 280 281 282 282 280 278 278 279 281 282 282 281 278 275 274 274 274 274 274 274 275 277 278 278 279 280 281 283 284 285 286 287 288 289 290 291 292 293 294 295 296 297 297 296 296 296
249 243 233 231 235 239 241 242 243 246 250 252 254 256 257 256 253 248 246 248 251 257 262 267 270 268 264 261 260 261 264 267 269 271 274 277 279 279 279 280 281 283 283 283 282 280 278 277 277 278 278 278 276 275 275 275 276 277 277 277 278 280 281 281 282 282 283 284 285 286 288 289 290 291 291 292 293 293 294 294 295 295 295 295 295
250 246 240 237 238 241 244 244 244 245 248 251 256 259 260 261 260 257 253 249 248 250 254 258 262 265 265 264 265 266 268 269 269 271 275 280 281 281 280 279 280 282 284 285 285 285 283 279 276 275 274 275 275 273 272 272 274 277 279 280 282 284 285 285 284 283 283 283 284 286 287 288 290 291 291 292 292 292 292 293 293 293 294 294 293
246 246 244 241 242 245 247 246 245 246 247 249 252 254 257 259 261 261 259 256 252 251 252 253 255 257 260 262 265 269 271 270 269 269 273 278 280 281 280 279 279 280 283 285 287 288 287 285 281 277 274 274 274 274 273 271 272 274 278 281 283 285 286 286 286 284 283 282 283 284 286 288 289 290 290 290 291 291 291 291 291 291 292 292 291
243 245 245 244 244 246 247 247 246 246 246 247 248 249 251 254 256 259 261 261 260 258 257 255 253 253 255 258 263 267 271 271 270 270 272 275 277 278 279 280 280 281 283 285 286 287 288 287 285 283 279 277 276 276 276 276 275 276 277 279 281 283 285 286 286 285 283 282 282 283 285 287 288 289 290 290 291 292 292 292 291 291 291 291 290
243 244 245 246 245 244 246 247 247 246 245 245 245 246 247 249 251 254 256 259 261 262 263 261 255 249 249 254 259 264 268 270 272 273 274 275 275 276 276 278 279 281 282 283 284 285 286 286 285 285 284 283 281 280 280 280 279 278 278 279 280 282 284 285 285 285 284 283 283 284 285 286 288 289 291 291 292 292 292 292 292 292 291 290 290
244 245 245 246 246 245 245 245 245 245 246 245 244 244 245 246 247 248 250 254 259 261 261 260 254 247 245 249 255 261 266 269 270 272 274 275 276 275 275 276 277 279 281 282 283 283 284 285 285 285 285 286 286 285 285 285 284 282 281 280 280 282 284 286 287 286 286 285 285 285 286 287 289 290 291 291 292 292 293 293 293 292 292 291 290
242 243 244 246 246 246 245 243 243 244 244 244 244 243 243 243 244 245 247 250 253 254 253 251 248 243 241 245 253 261 265 266 267 270 271 273 275 276 276 276 277 278 280 281 282 283 284 284 283 284 285 286 287 288 289 289 288 286 285 283 283 283 285 287 288 289 288 287 287 287 287 288 289 289 290 290 291 291 292 292 292 292 292 291 290
240 241 243 244 245 245 244 244 243 243 243 243 243 241 241 241 242 243 243 244 245 245 245 243 242 241 242 249 260 267 267 265 264 267 269 271 272 274 275 276 276 278 279 281 282 283 284 284 284 284 284 284 286 288 290 291 289 287 285 284 284 284 286 287 289 290 290 289 289 288 288 288 288 288 288 288 289 289 289 289 289 288 288 289 288
239 240 241 241 242 243 243 243 243 242 241 241 240 240 239 240 241 242 243 242 242 242 243 243 242 243 245 252 260 265 266 265 263 264 266 268 271 272 274 275 276 277 279 281 282 283 284 284 284 283 283 283 284 287 289 290 290 287 285 284 284 284 285 286 288 288 289 289 289 289 288 288 288 288 288 288 288 288 287 287 285 285 285 285 286
239 239 240 240 240 241 241 241 242 241 240 239 238 237 237 237 239 242 243 243 242 241 242 243 243 244 248 253 257 259 261 263 264 264 264 266 269 271 273 274 276 277 279 280 281 282 283 284 283 282 282 282 283 285 287 288 288 286 284 283 283 284 285 285 286 287 287 288 288 289 288 288 288 288 288 289 289 288 287 285 284 283 283 284 284
241 240 240 240 239 239 239 240 240 241 240 238 236 235 235 234 236 239 241 242 242 241 241 242 243 245 249 253 255 254 254 258 261 263 263 265 269 272 273 275 276 277 278 279 280 281 282 283 283 282 281 280 281 283 285 286 286 285 284 283 282 282 282 282 283 285 286 287 288 288 288 288 288 288 288 288 289 289 288 286 284 283 283 284 284
243 241 240 239 238 237 238 239 240 241 240 237 235 234 234 233 233 235 238 240 241 241 239 239 240 243 247 251 252 250 250 253 258 261 263 266 270 272 274 275 276 277 277 279 280 280 280 282 283 282 281 280 280 281 283 285 286 286 285 284 283 282 280 280 280 281 282 283 285 286 286 286 287 287 287 287 287 286 286 285 285 286 285 285 285
244 242 240 239 237 237 237 238 239 240 240 238 235 234 233 232 232 234 236 237 238 239 238 237 238 241 245 247 248 248 249 252 256 259 262 266 269 272 274 276 277 276 276 279 280 278 278 280 281 280 279 279 279 281 283 285 286 286 286 285 285 284 283 281 280 279 280 282 284 285 286 285 284 283 284 285 285 285 284 284 284 285 285 285 285
244 242 241 240 239 238 238 239 239 240 240 238 236 234 233 233 233 235 236 237 237 238 238 238 239 242 246 248 249 249 251 254 256 258 261 265 268 271 274 276 276 275 277 279 279 277 277 278 278 277 277 278 280 282 285 286 285 284 284 284 284 282 281 280 279 278 279 282 285 286 287 287 285 282 281 281 282 283 283 283 283 284 284 285 285
243 243 243 242 242 241 241 242 242 242 242 240 237 236 235 235 236 238 238 238 238 239 240 241 243 246 249 251 251 251 253 255 256 258 261 264 267 270 272 273 274 275 277 278 277 275 275 276 276 276 277 278 280 282 283 283 281 281 280 280 280 280 279 280 279 278 278 281 285 287 288 288 287 284 282 281 281 282 283 283 284 284 285 286 286
244 245 245 245 245 244 244 244 245 245 245 243 241 240 240 240 241 242 242 242 242 244 246 249 251 252 254 255 254 252 252 254 255 258 261 264 267 269 270 270 272 274 276 276 274 273 273 274 275 275 276 278 279 280 281 282 283 284 283 282 281 280 281 282 282 280 279 281 284 286 288 289 288 286 284 283 282 282 282 283 283 284 284 285 286
244 245 246 246 246 245 245 245 246 247 247 246 245 244 244 244 245 245 246 246 247 248 249 251 254 256 256 256 254 252 251 252 255 258 261 263 266 268 269 270 272 274 275 272 270 270 272 273 271 270 270 272 275 277 280 284 288 290 289 287 285 284 284 283 281 279 280 282 283 283 284 285 286 285 284 283 282 281 281 281 282 283 283 283 283
Height
5884 5884 5884 5885 5885 5887 5888 5888 5889 5890 5891 5891 5892 5893 5894 5895 5896 5897 5899 5900 5901 5903 5904 5905 5905 5906 5907 5909 5909 5909 5910 5910 5910 5910 5910 5910 5910 5910 5911 5912 5913 5913 5913 5913 5914 5914 5915 5915 5916 5916 5917 5917 5917 5916 5916 5916 5917 5917 5917 5917 5917 5917 5917 5917 5917 5916 5916 5917 5917 5916 5916 5915 5914 5914 5914 5913 5913 5913 5912 5912 5911 5911 5910 5910 5909
5880 5881 5882 5883 5884 5885 5885 5886 5887 5887 5888 5889 5890 5890 5891 5892 5894 5895 5896 5898 5900 5901 5902 5903 5903 5903 5904 5904 5905 5905 5906 5908 5909 5909 5909 5909 5909 5909 5910 5910 5911 5911 5912 5912 5912 5913 5913 5913 5914 5914 5915 5915 5915 5915 5915 5915 5915 5915 5915 5915 5915 5915 5915 5915 5915 5915 5914 5915 5915 5915 5914 5914 5913 5912 5912 5911 5911 5911 5910 5910 5910 5910 5909 5909 5908
5878 5878 5879 5880 5881 5881 5882 5883 5884 5885 5885 5886 5887 5888 5889 5890 5892 5893 5894 5896 5897 5898 5900 5900 5900 5900 5900 5901 5902 5902 5903 5904 5906 5906 5907 5907 5908 5908 5908 5908 5909 5910 5910 5911 5911 5912 5912 5912 5912 5912 5913 5913 5913 5913 5913 5913 5913 5913 5913 5913 5913 5913 5913 5913 5913 5913 5913 5912 5912 5912 5912 5911 5911 5911 5910 5909 5909 5909 5909 5909 5909 5909 5908 5907 5907
5876 5875 5875 5876 5876 5877 5878 5879 5880 5881 5882 5883 5884 5885 5887 5888 5889 5890 5891 5893 5894 5895 5897 5897 5897 5898 5898 5899 5900 5901 5902 5902 5903 5903 5905 5906 5906 5907 5907 5907 5908 5909 5909 5910 5910 5910 5910 5910 5910 5911 5911 5911 5912 5912 5912 5912 5911 5911 5911 5911 5911 5911 5911 5911 5911 5910 5910 5910 5910 5910 5909 5909 5909 5908 5907 5907 5907 5907 5907 5907 5906 5906 5905 5905 5904
5872 5872 5872 5871 5871 5873 5874 5876 5877 5878 5879 5881 5883 5884 5885 5886 5887 5888 5888 5890 5891 5892 5894 5895 5895 5896 5896 5897 5898 5899 5900 5900 5901 5901 5902 5904 5905 5905 5906 5906 5907 5907 5908 5908 5908 5909 5909 5909 5909 5910 5910 5910 5910 5910 5910 5910 5909 5909 5909 5909 5909 5909 5909 5909 5908 5908 5908 5908 5908 5907 5907 5906 5906 5905 5905 5905 5905 5904 5904 5903 5902 5902 5902 5902 5902
5869 5869 5869 5868 5868 5869 5871 5873 5874 5876 5878 5880 5881 5883 5884 5885 5885 5885 5886 5887 5888 5889 5891 5892 5893 5893 5894 5895 5896 5897 5898 5898 5899 5899 5900 5901 5903 5904 5904 5905 5905 5906 5906 5906 5907 5907 5907 5908 5908 5908 5908 5908 5908 5908 5908 5908 5908 5907 5907 5907 5907 5907 5907 5907 5906 5906 5906 5906 5905 5905 5904 5903 5903 5903 5903 5903 5903 5901 5901 5900 5899 5899 5900 5900 5900
5867 5867 5866 5866 5866 5868 5869 5870 5872 5874 5876 5878 5879 5881 5882 5882 5882 5883 5884 5885 5886 5887 5889 5889 5890 5891 5892 5893 5894 5895 5896 5896 5897 5897 5898 5899 5901 5901 5902 5903 5904 5904 5905 5905 5905 5905 5906 5906 5906 5906 5907 5906 5906 5906 5906 5906 5906 5906 5905 5905 5905 5904 5904 5904 5904 5904 5904 5903 5903 5902 5901 5900 5899 5900 5901 5902 5902 5899 5897 5897 5898 5898 5898 5898 5898
5865 5865 5864 5864 5865 5866 5867 5868 5870 5873 5874 5876 5878 5879 5880 5879 5879 5881 5883 5883 5883 5884 5885 5886 5888 5889 5890 5891 5891 5892 5893 5894 5895 5895 5895 5897 5898 5899 5900 5901 5902 5902 5903 5903 5903 5904 5904 5904 5905 5905 5905 5904 5904 5904 5904 5905 5905 5904 5904 5904 5903 5902 5902 5902 5902 5902 5901 5901 5900 5899 5899 5898 5897 5898 5900 5902 5901 5897 5895 5896 5897 5896 5895 5895 5895
5863 5862 5862 5863 5863 5865 5866 5867 5869 5871 5872 5874 5875 5875 5875 5876 5877 5880 5881 5881 5880 5881 5882 5884 5885 5887 5888 5888 5889 5890 5891 5893 5893 5893 5893 5894 5895 5896 5898 5899 5900 5900 5901 5901 5902 5902 5902 5903 5903 5903 5903 5903 5903 5903 5903 5903 5903 5902 5902 5901 5901 5900 5900 5899 5899 5899 5899 5898 5898 5897 5897 5896 5895 5897 5898 5898 5896 5894 5894 5895 5894 5893 5893 5892 5892
5860 5860 5861 5861 5862 5863 5864 5866 5868 5869 5870 5871 5871 5871 5873 5875 5877 5878 5878 5877 5877 5878 5879 5881 5883 5883 5884 5885 5886 5887 5889 5890 5890 5891 5891 5892 5893 5894 5895 5896 5898 5898 5899 5900 5900 5900 5900 5901 5901 5901 5901 5902 5901 5901 5902 5902 5900 5899 5898 5898 5898 5898 5899 5898 5898 5897 5897 5896 5896 5895 5894 5894 5893 5894 5894 5893 5893 5892 5892 5892 5891 5891 5890 5890 5889
5858 5858 5859 5860 5861 5862 5863 5864 5866 5867 5867 5868 5868 5870 5872 5874 5874 5873 5872 5873 5874 5875 5876 5878 5880 5880 5881 5881 5883 5884 5886 5887 5888 5889 5890 5890 5891 5892 5893 5894 5896 5897 5897 5898 5898 5898 5898 5899 5899 5899 5899 5900 5899 5900 5901 5900 5898 5897 5897 5897 5897 5897 5898 5897 5896 5895 5895 5894 5894 5893 5892 5892 5891 5890 5890 5890 5890 5890 5890 5889 5889 5889 5888 5888 5887
5857 5857 5858 5859 5860 5861 5862 5863 5864 5864 5865 5867 5868 5869 5870 5870 5869 5868 5869 5870 5871 5872 5874 5876 5877 5878 5878 5879 5880 5882 5883 5885 5886 5887 5888 5888 5889 5890 5891 5892 5893 5894 5895 5896 5896 5897 5897 5897 5897 5898 5898 5897 5897 5898 5898 5897 5897 5897 5897 5896 5895 5896 5896 5895 5894 5894 5893 5892 5891 5891 5890 5890 5888 5887 5886 5887 5887 5887 5888 5887 5886 5886 5886 5885 5884
5857 5858 5859 5859 5860 5860 5861 5862 5863 5863 5864 5866 5867 5867 5866 5866 5866 5867 5868 5868 5869 5870 5872 5874 5875 5876 5876 5876 5878 5880 5882 5883 5884 5885 5886 5887 5888 5889 5889 5890 5891 5893 5893 5894 5894 5895 5895 5895 5895 5896 5896 5895 5895 5895 5895 5895 5895 5894 5895 5894 5894 5894 5894 5893 5892 5892 5892 5891 5890 5889 5888 5887 5885 5884 5883 5884 5885 5885 5885 5884 5883 5882 5882 5882 5882
5859 5860 5861 5861 5861 5861 5862 5863 5863 5864 5864 5865 5865 5865 5865 5866 5866 5867 5867 5868 5869 5870 5871 5873 5874 5874 5874 5875 5877 5879 5880 5881 5882 5883 5884 5885 5886 5887 5888 5889 5890 5891 5892 5892 5892 5893 5893 5893 5893 5893 5893 5893 5893 5893 5892 5892 5892 5891 5891 5892 5892 5893 5892 5891 5890 5890 5890 5889 5887 5886 5885 5884 5883 5881 5880 5880 5881 5881 5880 5880 5879 5878 5878 5879 5878
5860 5861 5863 5863 5864 5864 5864 5864 5864 5865 5865 5865 5865 5866 5866 5867 5867 5867 5868 5869 5869 5870 5871 5872 5873 5874 5873 5874 5875 5877 5878 5879 5880 5881 5883 5884 5885 5886 5887 5888 5888 5889 5890 5890 5890 5891 5891 5891 5891 5891 5891 5891 5891 5891 5891 5890 5890 5890 5890 5890 5890 5890 5889 5888 5887 5886 5886 5885 5884 5883 5882 5881 5880 5878 5877 5877 5878 5877 5875 5875 5875 5875 5875 5875 5873
5861 5862 5864 5865 5865 5865 5866 5866 5866 5866 5866 5867 5867 5867 5867 5868 5868 5868 5869 5869 5870 5870 5871 5872 5873 5873 5874 5874 5874 5875 5876 5877 5879 5881 5882 5883 5883 5884 5885 5886 5887 5887 5888 5888 5888 5888 5888 5888 5888 5888 5889 5889 5889 5889 5889 5889 5889 5889 5888 5888 5887 5887 5886 5885 5884 5883 5882 5882 5881 5881 5880 5878 5876 5875 5875 5875 5875 5873 5872 5872 5871 5871 5871 5871 5868
5861 5862 5863 5865 5866 5866 5866 5867 5867 5867 5867 5867 5868 5868 5868 5869 5869 5869 5870 5870 5870 5870 5870 5871 5872 5872 5873 5874 5874 5875 5876 5877 5879 5880 5881 5881 5882 5883 5883 5884 5885 5886 5886 5886 5887 5886 5886 5886 5886 5886 5886 5886 5887 5887 5887 5887 5887 5887 5886 5886 5886 5885 5884 5883 5882 5882 5881 5880 5879 5879 5878 5876 5873 5872 5872 5872 5871 5870 5869 5868 5867 5867 5866 5865 5863
5861 5861 5862 5863 5865 5866 5867 5867 5868 5868 5868 5868 5868 5868 5868 5869 5869 5870 5870 5870 5870 5870 5870 5871 5871 5872 5873 5873 5874 5875 5876 5877 5878 5879 5880 5881 5881 5882 5883 5884 5884 5885 5885 5885 5885 5884 5884 5884 5884 5884 5884 5885 5885 5885 5885 5885 5885 5885 5884 5884 5884 5883 5882 5882 5881 5880 5879 5878 5877 5877 5876 5873 5871 5870 5870 5869 5868 5867 5866 5865 5864 5863 5863 5861 5859
5859 5860 5861 5862 5863 5865 5866 5867 5868 5869 5868 5868 5868 5869 5869 5869 5870 5870 5871 5871 5871 5871 5871 5871 5872 5872 5873 5874 5875 5876 5877 5877 5878 5879 5880 5881 5881 5882 5882 5883 5883 5884 5884 5884 5882 5882 5882 5882 5882 5882 5882 5883 5883 5883 5883 5883 5883 5883 5882 5882 5881 5881 5880 5880 5879 5878 5877 5876 5875 5874 5873 5871 5869 5868 5867 5866 5865 5864 5863 5862 5861 5860 5859 5857 5856
5857 5859 5859 5860 5861 5863 5865 5866 5868 5869 5869 5869 5869 5869 5869 5870 5870 5871 5872 5872 5872 5872 5872 5872 5872 5873 5873 5874 5875 5876 5877 5877 5878 5879 5879 5880 5880 5881 5881 5881 5882 5882 5882 5881 5881 5880 5881 5880 5880 5880 5880 5880 5881 5881 5881 5881 5881 5881 5880 5879 5879 5878 5877 5877 5876 5875 5874 5873 5872 5872 5871 5869 5868 5866 5864 5863 5862 5861 5860 5858 5857 5856 5855 5853 5852
5856 5857 5858 5859 5860 5861 5863 5865 5866 5868 5869 5869 5869 5870 5869 5870 5870 5870 5871 5871 5872 5872 5872 5872 5872 5873 5874 5874 5875 5876 5876 5877 5877 5878 5878 5878 5879 5879 5879 5880 5880 5880 5880 5879 5879 5879 5879 5879 5879 5878 5878 5878 5879 5878 5878 5878 5878 5878 5878 5877 5876 5875 5875 5874 5873 5872 5871 5871 5870 5869 5867 5866 5865 5864 5862 5861 5859 5858 5857 5856 5854 5853 5851 5850 5848
5855 5856 5857 5858 5859 5860 5861 5863 5865 5866 5867 5868 5869 5869 5869 5869 5869 5869 5869 5870 5870 5871 5872 5872 5872 5873 5874 5875 5875 5875 5876 5876 5876 5877 5877 5877 5877 5877 5877 5877 5877 5877 5877 5877 5877 5877 5877 5877 5877 5877 5877 5877 5876 5876 5876 5876 5876 5875 5875 5874 5874 5873 5872 5871 5870 5869 5869 5868 5867 5865 5864 5863 5862 5861 5860 5858 5857 5855 5854 5853 5851 5850 5848 5846 5845
5852 5854 5855 5856 5858 5859 5860 5862 5863 5865 5866 5867 5868 5868 5868 5868 5868 5868 5868 5869 5869 5870 5871 5872 5872 5872 5873 5874 5874 5874 5874 5874 5874 5875 5875 5875 5875 5875 5874 5874 5874 5874 5874 5874 5874 5874 5875 5875 5875 5875 5875 5874 5874 5874 5873 5873 5873 5873 5872 5872 5871 5870 5869 5868 5867 5866 5866 5865 5864 5862 5861 5860 5859 5858 5857 5856 5854 5853 5851 5850 5848 5847 5845 5844 5842
5850 5851 5853 5854 5856 5858 5860 5861 5862 5864 5865 5866 5867 5867 5867 5867 5867 5867 5867 5868 5868 5868 5869 5870 5870 5870 5870 5871 5872 5872 5872 5872 5872 5872 5872 5872 5872 5872 5872 5872 5872 5871 5872 5871 5872 5872 5872 5872 5872 5872 5872 5872 5872 5871 5871 5870 5870 5870 5869 5868 5868 5867 5866 5865 5864 5863 5862 5861 5860 5860 5859 5858 5856 5855 5854 5853 5852 5850 5849 5847 5846 5844 5843 5842 5840
5848 5850 5851 5852 5854 5856 5857 5859 5861 5862 5863 5864 5865 5865 5866 5866 5866 5866 5866 5867 5867 5867 5867 5867 5867 5867 5867 5868 5868 5869 5869 5869 5869 5869 5869 5869 5869 5869 5869 5870 5869 5869 5869 5869 5869 5869 5869 5870 5870 5870 5870 5869 5869 5868 5868 5867 5867 5867 5866 5865 5864 5864 5863 5862 5861 5859 5859 5858 5857 5857 5856 5855 5854 5853 5852 5851 5849 5848 5847 5845 5843 5842 5841 5840 5838
5847 5849 5850 5851 5851 5853 5854 5856 5858 5860 5861 5862 5863 5863 5864 5865 5865 5865 5865 5866 5866 5866 5866 5866 5865 5865 5865 5866 5866 5866 5866 5866 5866 5866 5866 5867 5867 5867 5867 5867 5867 5867 5867 5867 5867 5867 5867 5867 5867 5867 5867 5867 5866 5866 5865 5864 5864 5863 5863 5862 5861 5860 5860 5859 5857 5857 5856 5855 5854 5854 5853 5852 5851 5850 5849 5848 5847 5846 5844 5843 5841 5840 5838 5837 5836
5845 5847 5849 5850 5850 5851 5852 5854 5855 5857 5858 5859 5860 5862 5862 5863 5863 5864 5864 5864 5864 5864 5864 5864 5864 5864 5864 5864 5864 5864 5864 5864 5864 5864 5865 5865 5865 5865 5865 5865 5865 5865 5865 5865 5865 5865 5865 5865 5864 5864 5864 5864 5864 5863 5862 5861 5861 5860 5859 5858 5858 5857 5856 5856 5855 5854 5853 5852 5852 5851 5850 5850 5849 5848 5847 5846 5845 5843 5842 5840 5839 5837 5836 5835 5833
5842 5845 5847 5848 5849 5850 5850 5852 5853 5854 5856 5857 5858 5859 5860 5861 5861 5862 5862 5862 5862 5863 5863 5863 5863 5863 5863 5863 5863 5863 5863 5863 5863 5863 5863 5863 5863 5863 5863 5863 5863 5863 5862 5862 5862 5862 5862 5862 5862 5861 5861 5861 5861 5860 5859 5858 5858 5857 5856 5855 5855 5854 5854 5853 5852 5852 5851 5850 5849 5849 5848 5847 5846 5845 5844 5843 5842 5841 5840 5838 5837 5835 5834 5833 5831
5838 5841 5843 5845 5846 5847 5848 5849 5851 5852 5853 5854 5855 5856 5857 5858 5859 5859 5860 5860 5860 5861 5861 5861 5861 5861 5861 5861 5861 5861 5861 5861 5861 5861 5862 5862 5862 5861 5861 5861 5861 5860 5860 5860 5859 5859 5859 5859 5858 5858 5858 5858 5857 5857 5856 5855 5854 5854 5853 5852 5852 5851 5851 5850 5850 5849 5848 5847 5847 5846 5845 5844 5843 5842 5841 5840 5840 5839 5838 5836 5834 5833 5832 5830 5829
5834 5837 5840 5841 5842 5844 5845 5846 5848 5849 5850 5851 5852 5853 5854 5855 5856 5857 5858 5858 5859 5859 5859 5859 5859 5859 5859 5859 5859 5859 5859 5859 5860 5860 5860 5860 5860 5860 5859 5859 5858 5858 5858 5857 5857 5857 5856 5856 5855 5855 5855 5854 5853 5853 5852 5852 5851 5850 5850 5849 5849 5848 5848 5847 5847 5846 5845 5845 5844 5843 5842 5841 5840 5839 5838 5838 5837 5836 5835 5834 5832 5831 5829 5828 5826
5831 5834 5836 5838 5839 5840 5842 5843 5844 5846 5847 5848 5849 5850 5851 5852 5853 5854 5854 5855 5856 5856 5857 5857 5857 5857 5857 5857 5857 5857 5857 5857 5858 5858 5858 5858 5858 5858 5857 5857 5856 5855 5855 5855 5854 5854 5853 5853 5852 5851 5851 5850 5849 5849 5848 5848 5847 5847 5846 5846 5846 5846 5845 5844 5844 5843 5842 5842 5841 5840 5839 5838 5837 5836 5835 5834 5834 5833 5832 5831 5829 5828 5826 5825 5823
5826 5830 5833 5836 5837 5838 5839 5840 5842 5843 5844 5845 5846 5847 5848 5849 5849 5850 5851 5852 5852 5853 5854 5854 5854 5854 5854 5854 5855 5855 5855 5855 5855 5855 5855 5855 5855 5855 5854 5854 5853 5852 5852 5851 5851 5851 5850 5849 5848 5848 5847 5847 5846 5845 5844 5844 5844 5843 5843 5842 5842 5842 5842 5841 5840 5840 5839 5839 5838 5837 5836 5835 5834 5833 5832 5831 5830 5829 5828 5827 5826 5825 5823 5822 5820
5823 5827 5830 5832 5835 5836 5837 5839 5840 5841 5841 5842 5843 5844 5845 5846 5846 5847 5848 5849 5850 5850 5851 5851 5852 5852 5852 5852 5852 5852 5853 5853 5853 5853 5852 5852 5852 5852 5851 5851 5850 5849 5848 5848 5847 5847 5846 5845 5845 5844 5844 5844 5843 5842 5841 5840 5840 5840 5839 5839 5838 5838 5838 5837 5837 5836 5836 5835 5834 5834 5833 5832 5831 5830 5829 5828 5827 5826 5825 5824 5823 5822 5820 5819 5817
5821 5824 5827 5829 5831 5833 5834 5836 5837 5838 5839 5840 5841 5841 5842 5843 5844 5844 5845 5846 5847 5848 5848 5849 5849 5850 5850 5850 5850 5850 5850 5850 5850 5850 5849 5849 5849 5848 5848 5847 5846 5846 5845 5844 5844 5843 5842 5842 5841 5840 5840 5840 5840 5839 5838 5837 5836 5836 5836 5835 5835 5834 5834 5834 5833 5832 5832 5831 5830 5830 5829 5828 5827 5826 5825 5825 5824 5823 5822 5821 5820 5819 5817 5816 5814
5819 5821 5823 5825 5827 5829 5830 5832 5834 5835 5836 5837 5838 5838 5839 5840 5841 5841 5842 5842 5843 5844 5845 5846 5847 5847 5848 5848 5848 5848 5848 5847 5847 5847 5846 5846 5845 5845 5844 5843 5843 5842 5842 5841 5840 5840 5839 5838 5838 5837 5836 5836 5836 5836 5835 5834 5833 5832 5832 5832 5831 5831 5830 5830 5829 5828 5828 5827 5827 5826 5825 5824 5823 5822 5822 5821 5820 5819 5818 5817 5816 5815 5814 5812 5811
5814 5817 5819 5820 5822 5824 5826 5828 5829 5831 5832 5833 5834 5835 5835 5837 5838 5838 5839 5839 5840 5841 5842 5842 5843 5843 5844 5844 5844 5845 5844 5844 5844 5844 5843 5843 5842 5841 5841 5840 5840 5839 5838 5838 5837 5836 5836 5835 5834 5834 5833 5833 5832 5832 5832 5832 5831 5829 5828 5828 5827 5827 5826 5826 5825 5825 5824 5823 5822 5822 5821 5820 5819 5818 5817 5816 5816 5815 5814 5813 5812 5811 5810 5809 5807
5809 5812 5814 5815 5817 5819 5821 5823 5824 5826 5827 5829 5830 5831 5832 5833 5833 5834 5835 5836 5836 5837 5838 5838 5838 5838 5839 5839 5840 5840 5840 5840 5840 5840 5840 5839 5839 5838 5837 5837 5836 5836 5835 5834 5834 5833 5832 5831 5831 5830 5830 5829 5829 5828 5828 5828 5828 5827 5825 5824 5823 5823 5822 5822 5821 5820 5820 5819 5818 5817 5817 5816 5815 5814 5813 5812 5811 5810 5810 5809 5808 5807 5806 5805 5804
5804 5806 5808 5810 5812 5813 5815 5817 5819 5820 5822 5824 5825 5827 5827 5828 5829 5830 5831 5831 5832 5833 5833 5833 5833 5833 5833 5834 5835 5836 5836 5836 5836 5836 5836 5835 5835 5834 5834 5833 5833 5832 5831 5831 5830 5829 5828 5827 5826 5826 5826 5825 5825 5824 5824 5823 5823 5823 5822 5820 5819 5818 5818 5817 5816 5816 5815 5815 5814 5813 5812 5812 5811 5810 5809 5808 5807 5806 5805 5804 5804 5803 5802 5801 5799
5798 5800 5802 5804 5806 5808 5810 5811 5812 5814 5816 5818 5820 5821 5823 5824 5824 5825 5826 5826 5826 5827 5828 5828 5828 5827 5828 5829 5830 5831 5831 5831 5831 5831 5831 5831 5830 5830 5830 5829 5829 5828 5827 5827 5826 5825 5825 5823 5822 5822 5821 5821 5821 5820 5819 5818 5818 5818 5818 5817 5815 5814 5814 5813 5812 5811 5811 5810 5809 5808 5808 5807 5807 5806 5805 5803 5802 5801 5801 5800 5799 5798 5797 5796 5795
5792 5794 5796 5798 5800 5802 5804 5805 5806 5808 5810 5812 5814 5816 5817 5818 5819 5820 5821 5821 5821 5821 5822 5822 5822 5822 5823 5824 5825 5826 5826 5826 5826 5827 5827 5826 5826 5826 5825 5825 5825 5824 5824 5823 5822 5821 5821 5820 5819 5818 5817 5816 5816 5815 5815 5814 5813 5813 5813 5812 5811 5811 5810 5809 5808 5807 5806 5806 5805 5804 5803 5803 5802 5801 5800 5799 5798 5797 5796 5795 5794 5794 5793 5792 5791
5786 5788 5790 5792 5794 5796 5797 5799 5800 5802 5803 5805 5807 5810 5811 5812 5814 5815 5815 5814 5814 5814 5815 5816 5816 5816 5817 5818 5819 5820 5821 5822 5822 5822 5822 5822 5821 5821 5821 5820 5820 5820 5819 5819 5818 5817 5816 5816 5815 5814 5813 5812 5812 5811 5810 5810 5809 5808 5808 5807 5807 5806 5805 5804 5804 5803 5802 5801 5801 5800 5799 5798 5798 5797 5796 5795 5794 5793 5792 5791 5790 5789 5788 5788 5787
5780 5781 5783 5785 5787 5789 5791 5792 5794 5795 5797 5798 5801 5803 5804 5806 5807 5807 5806 5806 5806 5807 5808 5809 5810 5811 5811 5812 5812 5813 5815 5816 5817 5816 5816 5816 5816 5816 5816 5815 5815 5815 5815 5814 5813 5813 5812 5811 5811 5810 5809 5808 5808 5807 5806 5806 5805 5804 5803 5803 5802 5802 5801 5800 5799 5798 5797 5797 5796 5796 5795 5794 5793 5793 5792 5791 5790 5789 5788 5787 5786 5785 5784 5783 5782
5774 5775 5777 5778 5780 5781 5783 5785 5786 5788 5790 5791 5793 5795 5797 5799 5799 5798 5797 5799 5802 5803 5804 5804 5805 5806 5806 5806 5807 5807 5808 5809 5811 5811 5811 5810 5810 5811 5810 5810 5810 5810 5810 5810 5809 5808 5808 5807 5806 5805 5804 5804 5803 5803 5802 5801 5801 5800 5799 5798 5798 5797 5796 5795 5795 5794 5793 5792 5792 5791 5790 5789 5788 5788 5787 5786 5786 5785 5784 5783 5782 5781 5779 5778 5777
5767 5768 5770 5771 5773 5774 5775 5777 5778 5780 5782 5784 5786 5787 5790 5791 5792 5790 5790 5793 5796 5798 5799 5799 5800 5801 5801 5801 5802 5803 5803 5803 5804 5805 5805 5804 5804 5805 5805 5805 5805 5805 5805 5805 5805 5804 5803 5802 5802 5801 5800 5799 5798 5798 5797 5796 5796 5795 5794 5794 5793 5793 5792 5791 5790 5789 5788 5787 5787 5786 5785 5784 5784 5783 5782 5781 5780 5780 5779 5778 5777 5776 5775 5774 5772
5760 5762 5763 5765 5766 5767 5768 5769 5771 5772 5774 5776 5778 5779 5781 5783 5784 5785 5785 5786 5788 5790 5791 5792 5793 5794 5795 5796 5796 5797 5797 5797 5797 5797 5798 5798 5798 5799 5799 5799 5799 5799 5799 5800 5800 5800 5799 5798 5797 5796 5795 5794 5794 5793 5792 5792 5791 5790 5790 5789 5789 5788 5787 5787 5786 5785 5784 5783 5782 5781 5780 5779 5778 5778 5777 5776 5775 5774 5774 5773 5772 5771 5770 5769 5768
5754 5756 5757 5758 5760 5761 5762 5763 5764 5765 5767 5768 5770 5772 5774 5776 5777 5778 5779 5780 5781 5782 5784 5785 5786 5788 5789 5790 5790 5791 5792 5792 5791 5791 5791 5792 5793 5793 5793 5793 5793 5793 5794 5794 5794 5794 5794 5793 5792 5791 5790 5789 5789 5788 5788 5787 5786 5786 5785 5784 5783 5783 5782 5781 5781 5780 5779 5778 5777 5776 5775 5774 5773 5772 5771 5771 5770 5769 5768 5767 5766 5765 5764 5764 5763
5749 5750 5751 5752 5753 5755 5756 5757 5758 5759 5760 5761 5763 5765 5766 5769 5770 5772 5773 5773 5774 5776 5777 5779 5780 5781 5782 5784 5785 5785 5785 5786 5786 5785 5786 5787 5787 5787 5787 5787 5788 5788 5788 5788 5788 5789 5789 5788 5787 5786 5785 5784 5784 5784 5783 5783 5782 5781 5779 5778 5777 5777 5776 5775 5774 5774 5773 5773 5772 5771 5770 5768 5767 5766 5765 5764 5763 5763 5763 5762 5761 5760 5759 5758 5757
5743 5744 5745 5746 5747 5748 5750 5751 5752 5753 5754 5755 5757 5758 5760 5762 5763 5764 5766 5767 5768 5770 5771 5772 5773 5774 5775 5777 5779 5779 5780 5781 5781 5780 5780 5781 5781 5781 5781 5782 5782 5782 5782 5782 5783 5783 5783 5782 5782 5781 5780 5779 5779 5779 5778 5778 5777 5775 5774 5772 5772 5771 5770 5769 5768 5768 5767 5767 5766 5765 5764 5763 5761 5760 5759 5758 5757 5757 5756 5756 5755 5754 5753 5752 5751
5738 5738 5739 5740 5741 5743 5744 5745 5746 5748 5749 5750 5751 5752 5754 5755 5756 5758 5760 5761 5762 5764 5765 5766 5767 5768 5769 5770 5773 5775 5776 5776 5776 5775 5775 5774 5775 5775 5776 5777 5777 5777 5777 5777 5777 5777 5777 5776 5776 5775 5774 5774 5774 5774 5773 5772 5771 5770 5768 5767 5766 5764 5764 5763 5763 5763 5762 5762 5760 5759 5758 5757 5756 5754 5754 5753 5752 5751 5750 5749 5749 5748 5747 5745 5744
5733 5734 5735 5736 5737 5738 5739 5741 5742 5743 5744 5745 5746 5747 5748 5749 5750 5752 5754 5755 5757 5758 5760 5761 5762 5763 5764 5765 5768 5771 5771 5771 5770 5771 5770 5769 5769 5769 5770 5771 5771 5772 5772 5772 5771 5771 5770 5770 5770 5769 5769 5768 5768 5768 5767 5766 5765 5764 5762 5761 5759 5758 5758 5758 5758 5757 5757 5756 5755 5754 5752 5751 5749 5748 5747 5747 5746 5745 5744 5743 5743 5742 5741 5739 5738
5729 5730 5731 5732 5733 5734 5735 5737 5738 5739 5739 5740 5741 5742 5744 5745 5746 5747 5748 5749 5751 5753 5755 5757 5758 5758 5759 5760 5763 5765 5765 5765 5765 5765 5765 5765 5763 5763 5764 5765 5766 5766 5766 5766 5766 5765 5764 5764 5764 5764 5764 5763 5763 5762 5761 5760 5759 5758 5756 5755 5753 5753 5752 5752 5752 5751 5750 5749 5749 5748 5747 5746 5744 5742 5741 5740 5740 5739 5738 5737 5737 5736 5735 5734 5732